Unser Flugplatzteam

Segelflugzeugschlepp am Flugplatz Konstanz

Unsere freundlichen Mitarbeiter stehen Ihnen gerne mit Rat und Tat zur Seite:

Minky Schweizer

Flugleiterin, Beauftragte für Luftaufsicht am Verkehrlandeplatz Konstanz

Jan Schumacher

Flugleiter, Beauftragter für Luftaufsicht am Verkehrlandeplatz Konstanz

Live am Platz

Die Bilder unserer Webcams werden alle 5 Minuten aktualisiert.

Sonnenaufgang:

03:29 UTC / 05:29 Lokal

Sonnenuntergang:

19:12 UTC / 21:12 Lokal

METAR (29.05.2022 01:50 UTC):

EDNY 290150Z AUTO 02006KT 9999 NCD 08/03 Q1012
VFR

TAF (28.05.2022 23:00 UTC):

TAF EDNY 282300Z 2900/2924 05005KT 9999 FEW040 BECMG 2906/2908 02010KT TEMPO 2911/2916 4000 TSRA BKN020CB BECMG 2915/2917 08004KT

Alle Angaben unverbindlich und ohne Gewähr. Zeiten genähert.

Für den Verkehrslandeplatz Konstanz werden keine offiziellen Wetterinformationen ausgegeben. Daher werden zur Orientierung Daten des nahegelegenen Flughafens Friedrichshafen dargestellt.

Das Landeentgelt kann bei uns auch mit aerops bezahlt werden. Die App für's Handy ist kostenfrei erhältlich.